Location: PSU-Greenbush Astrophysical Observatory
(37.5140°N, 94.9880°W)
Time: 22:44:01
(UTC-06:00)

Altair - Pass Details

Date: 30 January 2020
Orbit: 1502 x 1682 km, 47.2° (Epoch: 19 February)

Event Time Altitude Azimuth Distance (km) Brightness Sun altitude
Rises 11:46:09 0° 295° (WNW) 4,924 9.8 33.7°
Reaches altitude 10° 11:49:25 10° 299° (WNW) 3,943 9.4 33.9°
Maximum altitude 11:59:26 58° 18° (NNE) 1,912 8.2 34.3°
Drops below altitude 10° 12:09:19 10° 96° (E) 3,898 9.9 34.5°
Sets 12:12:31 0° 100° (E) 4,865 10.3 34.6°
